INMARSAT 3-F1

Last updated on Dec. 5, 2020, 6:14 a.m. UTC

1 23839U 96020A   20339.64583907 -.00000213  00000-0  00000-0 0  9998
2 23839   6.4098  61.4059 0004643 184.8233 213.6333  1.00005300 90059
UTC
Height (km)
Latitude
Longitude
Inclination
Orbital Period
UTC large
Height (km)
Speed (km/s)
/
Latitude / Longitude
Inclination (degrees)
Orbital Period (minutes)
Azimuth
Elevation
Range (km)
Doppler Factor
iOS Compass Heading
iOS Angle

Next 30 passes for location: Hong Kong

Rise time Rise Azimuth (degrees) Set time Set Azimuth (degrees) Duration Max altitude (degrees)

No matching passes for this satellites